EZY7291 LEPA-EGHI

Flight info

Callsign EZY7291
Flight time N/A
Altitude 36000
Route DRAGO DCT PAPOS DCT UMURE DCT XIKEN DCT KARES DCT ARBEK DCT REBUL DCT USKAR DCT MOPAS DCT GIROM DCT AGN DCT SECHE DCT UVELI DCT CNA DCT MANAK UY110 ORIST Y110 THRED
Aircraft A319/M-SDE3FGHIRWY/LB1

Departure

Time N/A
Airport Palma de Mallorca Airport (LEPA)

Arrival

Time 2026-05-04 16:56
Airport Southampton Airport (EGHI)
Time Latitude Longitude Altitude Speed Heading
2026-05-04 15:48 44.63902 0.38273 35897 ft 460 kts 330°
2026-05-04 15:49 44.69675 0.34420 35887 ft 460 kts 330°
2026-05-04 15:49 44.75433 0.30572 35896 ft 460 kts 330°
2026-05-04 15:50 44.81206 0.26700 35882 ft 459 kts 330°
2026-05-04 15:50 44.86945 0.22844 35878 ft 460 kts 330°
2026-05-04 15:51 44.92716 0.18954 35890 ft 459 kts 330°
2026-05-04 15:51 44.98463 0.15072 35880 ft 459 kts 330°
2026-05-04 15:52 45.04207 0.11187 35895 ft 460 kts 330°
2026-05-04 15:52 45.09969 0.07289 35903 ft 460 kts 330°
2026-05-04 15:53 45.15728 0.03383 35907 ft 460 kts 330°
2026-05-04 15:53 45.21477 -0.00529 35891 ft 459 kts 330°
2026-05-04 15:54 45.27210 -0.04440 35899 ft 459 kts 330°
2026-05-04 15:54 45.32975 -0.08385 35898 ft 460 kts 330°
2026-05-04 15:55 45.38684 -0.12301 35896 ft 460 kts 330°
2026-05-04 15:55 45.44461 -0.16273 35906 ft 460 kts 330°
2026-05-04 15:56 45.50204 -0.20229 35898 ft 461 kts 331°
2026-05-04 15:56 45.55942 -0.24194 35908 ft 461 kts 330°
2026-05-04 15:57 45.61734 -0.28228 35908 ft 466 kts 329°
2026-05-04 15:57 45.67345 -0.32921 35908 ft 472 kts 323°
2026-05-04 15:58 45.72578 -0.38481 35910 ft 472 kts 318°
2026-05-04 15:58 45.77706 -0.44306 35911 ft 472 kts 318°
2026-05-04 15:59 45.82857 -0.50160 35906 ft 473 kts 318°
2026-05-04 15:59 45.87986 -0.55984 35901 ft 473 kts 319°
2026-05-04 16:00 45.93156 -0.61863 35916 ft 474 kts 319°
2026-05-04 16:00 45.98292 -0.67712 35910 ft 474 kts 318°
2026-05-04 16:01 46.03421 -0.73572 35902 ft 474 kts 318°
2026-05-04 16:01 46.08563 -0.79461 35898 ft 474 kts 318°
2026-05-04 16:02 46.13719 -0.85382 35911 ft 473 kts 318°
2026-05-04 16:03 46.21395 -0.94225 35913 ft 472 kts 318°
2026-05-04 16:03 46.26502 -1.00112 35915 ft 473 kts 318°
2026-05-04 16:04 46.31642 -1.06057 35924 ft 473 kts 318°
2026-05-04 16:04 46.39299 -1.14952 35927 ft 473 kts 318°
2026-05-04 16:05 46.44442 -1.20946 35917 ft 473 kts 319°
2026-05-04 16:06 46.52097 -1.29902 35921 ft 473 kts 319°
2026-05-04 16:07 46.62755 -1.40954 35935 ft 475 kts 329°
2026-05-04 16:08 46.74582 -1.49468 35930 ft 477 kts 333°
2026-05-04 16:09 46.90042 -1.57980 35930 ft 479 kts 348°
2026-05-04 16:10 47.03297 -1.60024 35935 ft 479 kts 356°
2026-05-04 16:11 47.16553 -1.61318 35933 ft 478 kts 356°
2026-05-04 16:12 47.36397 -1.64014 35929 ft 479 kts 355°
2026-05-04 16:13 47.49604 -1.65881 35926 ft 478 kts 354°
2026-05-04 16:14 47.62781 -1.67764 35920 ft 477 kts 354°
2026-05-04 16:16 47.79241 -1.70129 35923 ft 477 kts 354°
2026-05-04 16:17 47.95732 -1.72516 35927 ft 477 kts 354°
2026-05-04 16:18 48.08852 -1.74174 35947 ft 476 kts 358°
2026-05-04 16:19 48.25227 -1.74365 35941 ft 460 kts 360°
2026-05-04 16:20 48.41128 -1.74549 35937 ft 458 kts 359°
2026-05-04 16:22 48.57011 -1.74744 35936 ft 457 kts 359°
2026-05-04 16:23 48.76006 -1.74980 35298 ft 454 kts 360°
2026-05-04 16:24 48.88682 -1.75147 33028 ft 466 kts
2026-05-04 16:25 48.95187 -1.75090 31546 ft 472 kts
2026-05-04 16:26 49.08272 -1.74521 28841 ft 464 kts
2026-05-04 16:26 49.17700 -1.74153 27440 ft 445 kts
2026-05-04 16:27 49.23781 -1.73918 26512 ft 433 kts
2026-05-04 16:28 49.32673 -1.73576 25133 ft 419 kts
2026-05-04 16:28 49.41263 -1.73247 23786 ft 408 kts
2026-05-04 16:29 49.52398 -1.72817 22084 ft 395 kts
2026-05-04 16:30 49.60497 -1.72914 20863 ft 387 kts 355°
2026-05-04 16:31 49.65762 -1.74241 20013 ft 382 kts 350°
2026-05-04 16:31 49.73480 -1.76575 18776 ft 373 kts 350°
2026-05-04 16:32 49.81005 -1.78815 17545 ft 365 kts 350°
2026-05-04 16:33 49.85942 -1.80282 16710 ft 361 kts 350°
2026-05-04 16:33 49.90831 -1.81740 15886 ft 356 kts 350°
2026-05-04 16:34 49.95670 -1.83184 15070 ft 352 kts 350°
2026-05-04 16:34 49.98053 -1.83868 14662 ft 350 kts 352°
2026-05-04 16:35 50.05260 -1.83832 13394 ft 343 kts
2026-05-04 16:35 50.12313 -1.82798 12150 ft 336 kts
2026-05-04 16:36 50.14599 -1.82205 11736 ft 333 kts 13°
2026-05-04 16:36 50.19022 -1.80362 10878 ft 329 kts 17°
2026-05-04 16:37 50.23329 -1.78404 10280 ft 314 kts 17°
2026-05-04 16:37 50.25380 -1.77475 10158 ft 301 kts 17°
2026-05-04 16:37 50.29257 -1.75721 9803 ft 283 kts 16°
2026-05-04 16:38 50.33013 -1.74023 9112 ft 280 kts 17°
2026-05-04 16:39 50.38559 -1.71513 8124 ft 274 kts 16°
2026-05-04 16:39 50.42199 -1.69863 7480 ft 270 kts 16°
2026-05-04 16:40 50.45713 -1.68267 7164 ft 251 kts 16°
2026-05-04 16:40 50.48896 -1.66818 7013 ft 229 kts 17°
2026-05-04 16:41 50.51757 -1.65087 6967 ft 213 kts 24°
2026-05-04 16:41 50.55915 -1.62195 6978 ft 228 kts 24°
2026-05-04 16:42 50.60294 -1.59156 6988 ft 230 kts 24°
2026-05-04 16:43 50.63207 -1.57131 6971 ft 230 kts 24°
2026-05-04 16:43 50.66143 -1.55088 6984 ft 230 kts 24°
2026-05-04 16:43 50.67588 -1.54081 6997 ft 230 kts 24°
2026-05-04 16:44 50.73383 -1.50039 6660 ft 227 kts 24°
2026-05-04 16:45 50.76281 -1.48015 6317 ft 226 kts 24°
2026-05-04 16:46 50.80550 -1.45029 5701 ft 224 kts 24°
2026-05-04 16:46 50.83390 -1.43039 5237 ft 222 kts 24°
2026-05-04 16:47 50.86184 -1.41077 4847 ft 220 kts 24°
2026-05-04 16:47 50.88976 -1.39114 4452 ft 218 kts 24°
2026-05-04 16:48 50.93119 -1.36195 3873 ft 215 kts 24°
2026-05-04 16:48 50.94470 -1.35243 3761 ft 213 kts 24°
2026-05-04 16:49 50.96916 -1.32884 3459 ft 206 kts 37°
2026-05-04 16:49 50.99210 -1.30154 3191 ft 201 kts 37°
2026-05-04 16:50 51.01318 -1.27645 3012 ft 180 kts 37°
2026-05-04 16:50 51.03307 -1.25287 2765 ft 177 kts 37°
2026-05-04 16:51 51.05267 -1.22974 2549 ft 175 kts 34°
2026-05-04 16:51 51.06377 -1.22420 2434 ft 163 kts
2026-05-04 16:51 51.08244 -1.24174 2217 ft 169 kts 303°
2026-05-04 16:52 51.08147 -1.27807 2007 ft 177 kts 232°
2026-05-04 16:52 51.07170 -1.28951 1918 ft 176 kts 204°
2026-05-04 16:53 51.04869 -1.30227 1791 ft 173 kts 195°
2026-05-04 16:53 51.01785 -1.31910 1321 ft 146 kts 197°
2026-05-04 16:54 51.00834 -1.32444 1135 ft 145 kts 197°
2026-05-04 16:55 50.97107 -1.34521 346 ft 139 kts 198°
2026-05-04 16:55 50.95308 -1.35522 43 ft 125 kts 200°
2026-05-04 16:56 50.94565 -1.35988 43 ft 14 kts 273°
2026-05-04 16:56 50.94783 -1.36076 45 ft 13 kts 20°
2026-05-04 16:57 50.94861 -1.36032 45 ft 6 kts 16°
2026-05-04 16:57 50.94913 -1.36082 45 ft 1 kts 24°
2026-05-04 16:58 50.94959 -1.36056 45 ft 0 kts 20°